Wind_Speed
38 39 39 39 39 39 40 40 40 40 41 41 41 41 40 40 41 44 45 45 45 47 48 48 49 49 48 47 45 44 45 46 46 47 49 50 51 51 49 49 50 51 52 51 49 48 49 49 48 49 49 46 44 43 43 46 50 53 55 58 61 61 59
38 39 39 40 40 40 41 41 41 41 41 42 43 44 43 42 42 44 45 44 45 47 48 49 50 51 50 49 48 48 48 48 49 49 50 50 49 49 48 48 48 49 50 50 49 48 48 48 47 48 48 46 45 43 42 44 47 50 53 54 56 59 59
39 39 40 40 40 40 41 41 41 41 42 43 43 44 44 43 44 45 45 45 45 46 47 48 48 49 50 50 50 50 50 49 49 49 49 48 48 48 47 47 47 48 49 49 49 48 48 48 46 46 46 45 44 42 42 43 45 47 51 52 52 54 57
39 39 40 40 40 40 40 41 41 42 42 43 44 44 43 43 43 44 45 45 46 46 46 47 47 48 48 48 50 50 49 49 49 48 48 48 47 47 48 48 48 48 48 48 49 48 48 47 46 46 45 44 43 42 41 42 42 43 47 49 50 51 53
39 40 40 40 40 40 40 41 41 42 42 43 43 42 41 41 41 42 44 45 45 45 46 46 46 46 46 47 48 48 48 47 47 47 47 47 47 47 47 47 48 48 48 48 48 48 47 46 45 45 44 43 44 43 41 39 39 40 42 46 48 49 51
40 41 41 40 40 40 40 41 41 42 42 42 40 39 39 40 41 41 42 43 43 44 44 45 45 45 45 45 46 47 46 46 46 46 45 45 45 45 45 45 45 45 46 46 46 46 46 45 44 43 43 42 43 43 41 38 36 36 38 42 45 47 49
42 42 42 42 41 41 40 41 41 42 42 41 39 38 38 38 39 40 41 42 42 43 43 43 44 44 44 44 44 44 44 44 44 43 43 42 41 42 42 42 43 43 43 43 43 43 43 43 42 41 41 42 41 40 40 38 36 34 35 38 41 44 46
43 43 43 42 42 41 41 41 41 41 41 39 38 38 38 37 38 39 41 41 42 42 42 42 42 42 42 42 42 42 42 42 41 41 40 39 39 39 40 41 41 40 40 40 40 40 40 41 40 39 40 40 39 38 37 36 35 33 33 35 38 40 42
43 43 43 42 42 41 41 40 40 40 39 38 37 38 38 38 37 38 39 40 40 40 40 41 41 41 41 41 41 41 41 40 39 39 39 37 37 38 39 39 38 37 37 38 38 38 38 39 39 38 38 39 37 36 35 34 34 33 31 33 35 37 39
43 43 42 42 41 41 41 40 40 39 37 37 37 37 38 38 38 38 38 38 39 39 39 38 38 38 39 39 39 40 40 39 38 37 37 35 35 37 39 38 37 36 36 37 37 37 38 38 38 37 37 37 35 34 34 33 33 32 31 31 33 35 37
42 42 42 42 42 41 40 39 39 38 36 35 35 36 37 38 38 38 37 37 37 37 37 36 36 36 36 36 37 37 37 36 35 35 34 33 34 37 38 37 36 36 36 36 36 36 37 38 38 37 36 35 34 34 34 33 32 32 31 30 31 33 35
43 43 43 43 42 41 39 38 38 37 35 34 34 34 35 37 38 37 37 36 35 35 35 35 34 34 34 33 34 34 33 32 31 31 32 33 35 36 37 36 37 38 37 37 36 36 37 37 37 37 35 34 33 33 33 32 32 32 31 30 30 31 33
43 43 43 43 42 40 38 37 37 36 34 33 33 33 34 36 36 36 35 34 34 33 33 33 33 32 31 30 31 32 31 29 28 30 32 34 35 36 36 36 37 38 38 38 37 36 36 37 36 36 35 33 32 32 32 31 31 31 31 30 30 30 31
42 43 43 42 41 39 36 35 35 34 33 32 32 31 33 34 34 33 33 32 31 31 31 31 31 31 29 29 30 31 30 29 29 31 33 34 35 36 37 37 37 38 38 38 38 37 37 36 36 35 34 32 32 31 30 29 29 29 30 30 30 30 30
42 42 42 41 39 37 35 34 33 32 32 31 31 31 32 32 31 31 30 29 29 29 29 29 29 29 29 30 30 31 31 31 31 32 34 35 35 36 37 37 38 38 38 39 39 38 38 37 36 35 33 32 31 30 30 29 28 28 28 28 29 30 30
41 41 41 39 38 36 34 32 31 31 31 30 30 31 31 30 29 28 28 27 27 26 26 27 27 28 28 29 30 31 31 32 32 33 34 35 35 36 36 37 37 38 38 39 39 39 38 38 37 35 34 32 31 30 29 29 28 27 27 27 28 29 30
41 40 40 39 37 35 33 31 30 30 30 29 29 30 30 29 27 26 26 25 25 25 25 26 26 26 27 27 28 28 29 29 31 32 33 32 33 33 34 35 35 35 36 37 37 38 38 38 37 35 34 33 32 30 29 29 28 28 27 27 28 30 31
40 40 39 38 36 34 33 30 28 28 28 28 28 29 29 28 26 24 25 24 24 24 24 25 24 25 25 25 25 25 25 26 28 30 31 30 29 29 30 31 31 31 32 33 34 35 36 36 36 35 34 33 32 31 30 29 29 28 27 27 27 30 32
40 40 39 38 35 33 32 29 27 27 27 27 26 28 28 27 25 24 24 23 23 23 23 23 23 22 22 22 21 22 22 23 25 27 27 27 26 26 26 27 27 28 29 30 31 33 34 35 35 34 34 33 32 31 31 30 30 29 28 27 27 30 33
40 40 39 37 35 32 30 28 26 26 26 25 25 26 27 25 24 25 23 22 23 23 22 21 20 20 20 20 20 20 19 20 23 24 23 23 23 23 23 24 25 26 27 28 29 30 31 32 32 32 32 31 31 30 30 30 30 29 28 28 28 29 32
40 40 39 37 34 31 29 27 25 25 25 24 24 25 25 23 23 24 24 23 23 22 22 20 18 19 19 19 19 19 19 20 22 21 20 20 20 20 21 22 24 25 26 26 26 27 28 28 29 29 29 29 28 29 29 30 30 29 28 28 28 29 30
40 40 39 36 33 31 28 26 24 24 24 23 23 24 24 22 21 23 24 23 23 22 21 20 19 19 19 18 19 20 20 21 21 19 18 19 19 19 21 23 24 24 25 25 25 26 26 26 26 26 25 25 26 26 27 28 29 28 28 28 28 28 29
39 39 38 35 31 29 28 25 23 23 23 22 22 24 23 21 20 22 23 23 22 22 21 20 20 19 19 19 19 20 21 22 22 20 19 20 20 20 22 24 24 24 24 25 25 24 23 24 24 24 23 22 23 23 24 26 26 27 27 27 27 28 28
37 37 36 33 30 28 27 25 23 22 23 22 22 23 23 20 18 21 23 22 22 22 22 21 21 20 20 19 19 19 20 22 23 22 21 20 20 21 22 23 24 24 24 24 23 22 20 21 22 21 20 20 20 21 22 23 24 24 25 25 26 26 27
37 36 34 32 29 27 26 25 23 22 22 22 22 22 23 20 18 20 23 22 22 22 22 22 22 21 20 20 20 19 20 21 22 22 21 20 20 20 21 22 22 22 22 21 21 20 18 18 18 18 18 18 18 18 19 20 21 22 22 23 24 25 25
35 35 33 31 28 26 25 24 23 22 21 22 22 22 22 20 19 20 22 22 22 22 22 22 23 21 21 21 20 20 20 20 21 21 20 19 19 18 19 19 19 19 19 18 17 17 17 16 16 16 16 16 16 16 17 17 18 19 20 21 22 22 23
34 33 32 30 28 26 24 23 23 22 22 21 21 22 22 21 19 21 22 21 20 21 21 21 22 22 21 21 21 20 20 19 19 18 17 17 16 16 16 16 15 15 15 14 14 14 14 14 13 13 13 14 14 14 15 15 16 17 18 19 19 20 20
32 32 31 30 28 26 24 23 22 23 22 21 20 21 22 21 20 20 20 19 19 19 20 20 21 21 21 20 20 19 18 17 17 16 15 14 14 13 13 13 12 12 11 11 11 11 11 11 10 10 11 11 11 12 12 13 14 15 16 16 17 17 18
31 31 30 29 27 26 24 23 22 23 22 21 20 21 22 22 21 20 19 18 18 18 18 19 19 19 19 18 18 17 16 15 15 14 12 11 11 10 10 9 8 8 7 7 7 7 7 7 7 7 7 8 8 9 10 11 12 13 14 14 15 15 15
30 30 30 29 27 25 24 23 22 23 22 21 21 21 22 22 22 20 18 18 17 17 17 17 17 17 17 16 16 15 14 13 12 10 9 8 7 6 5 5 5 4 4 4 4 4 4 3 3 3 4 5 6 7 8 9 10 11 11 12 13 13 14
29 29 29 28 27 25 24 23 23 23 23 22 21 21 21 22 22 20 18 17 17 17 16 16 16 16 16 15 14 12 11 10 8 7 5 4 4 3 3 3 3 2 2 2 1 1 1 1 1 2 2 3 4 5 6 7 8 9 9 10 11 11 12
28 28 28 28 26 25 24 23 22 22 23 23 22 22 21 21 21 20 18 17 17 16 16 15 15 15 14 13 11 10 8 7 5 4 4 3 3 3 3 3 3 3 2 2 1 1 1 1 2 2 3 4 5 5 6 7 8 8 9 9 10 11 11
28 27 27 27 26 25 24 23 22 22 22 23 24 22 20 19 21 20 18 17 16 15 15 15 14 14 13 11 9 8 6 5 5 4 4 4 4 4 4 4 4 4 3 3 3 2 2 2 2 3 3 4 5 5 6 7 7 8 8 8 9 9 10
28 27 27 26 25 24 24 24 23 23 22 24 25 23 20 19 20 20 18 17 16 15 15 14 13 12 11 9 8 7 6 5 5 4 4 4 4 4 5 4 4 4 3 3 3 3 3 3 4 4 4 5 5 6 6 7 7 7 7 8 8 9 10
27 27 27 25 24 24 23 23 23 23 23 23 25 24 21 19 18 19 18 17 15 15 15 14 12 11 10 9 8 8 7 6 5 5 4 4 4 5 5 4 4 3 3 3 3 3 4 4 4 5 5 6 6 7 7 7 8 8 8 8 9 9 10
26 27 26 25 24 24 24 23 23 23 23 23 24 24 23 20 16 17 18 18 15 14 14 13 12 11 11 10 9 8 8 7 6 5 4 4 4 5 5 4 4 3 3 3 4 4 4 5 5 6 6 7 7 8 8 8 8 8 8 9 9 10 11
Wind_Direction
302 301 300 300 301 300 300 299 300 300 301 300 299 296 292 287 282 280 278 276 275 276 277 278 278 279 278 279 279 277 275 274 276 276 277 279 281 283 284 284 284 285 285 285 284 282 280 278 277 273 269 262 256 251 248 248 249 250 249 247 245 243 241
302 301 300 300 300 300 298 298 299 299 300 299 298 296 294 289 284 281 280 279 277 276 276 277 277 278 279 279 278 276 276 276 277 278 278 280 281 282 282 282 282 283 283 283 282 281 280 279 278 277 275 270 264 258 253 249 247 248 250 250 248 246 243
302 302 301 300 300 299 298 297 298 298 299 299 297 295 292 289 286 284 283 281 279 277 276 276 276 277 277 277 277 277 277 277 278 279 279 280 280 280 281 281 281 281 282 282 281 280 280 279 278 277 277 276 271 265 259 254 249 247 248 250 250 250 247
302 302 301 301 300 299 298 297 297 298 298 298 297 295 292 289 286 284 283 281 280 279 278 277 276 277 277 277 278 278 278 278 279 279 279 279 279 279 280 280 280 280 280 281 280 280 279 279 279 278 278 278 276 269 263 258 254 250 248 248 249 250 249
302 302 301 301 300 299 298 298 297 298 298 298 296 294 293 290 287 284 282 281 280 279 279 278 278 277 277 277 277 278 278 278 278 279 279 279 279 279 279 279 279 279 279 279 279 279 279 279 278 278 278 278 277 273 267 261 257 255 251 248 247 249 249
302 302 301 301 300 300 299 298 298 299 299 298 296 294 292 290 288 286 284 282 281 280 279 278 278 277 277 277 277 278 278 278 279 279 279 280 280 279 278 278 278 278 278 278 278 279 279 278 277 277 277 275 275 275 272 265 259 254 252 250 246 246 248
303 302 301 301 300 299 299 298 299 299 300 298 296 293 292 290 288 287 285 284 282 281 280 279 279 279 278 278 278 279 279 279 279 280 280 280 280 280 278 277 276 276 276 277 278 278 279 278 276 275 275 274 273 274 274 271 263 253 249 250 248 245 246
304 303 302 302 301 300 299 299 299 300 299 297 295 294 292 291 288 286 285 284 283 282 281 281 280 280 280 280 280 280 281 281 281 282 282 281 281 279 278 277 276 276 276 276 277 277 277 277 275 274 273 272 271 271 272 272 269 259 249 247 248 246 245
306 304 303 303 302 300 299 299 299 299 298 296 295 294 293 292 289 287 285 284 283 283 282 282 281 281 281 281 281 281 281 282 282 282 282 281 281 279 277 277 277 277 277 276 275 275 275 275 274 273 272 270 270 270 269 268 268 264 255 247 245 245 244
305 304 303 302 301 300 300 299 299 298 297 295 294 294 294 293 291 288 286 285 284 283 282 282 281 281 281 281 281 281 281 282 281 281 281 281 280 278 278 279 280 279 277 276 275 274 273 272 272 272 271 269 269 269 268 265 264 263 260 252 245 243 242
305 303 302 301 300 300 300 299 298 297 296 294 294 294 294 294 292 290 289 287 285 284 283 283 282 281 281 280 280 280 280 280 279 278 277 277 275 276 278 280 281 279 278 277 276 274 273 272 271 269 268 268 268 267 265 264 262 261 260 255 248 243 241
305 304 302 301 300 299 299 299 298 297 295 293 293 293 294 294 293 292 290 289 288 287 286 285 283 282 282 282 281 280 279 278 277 275 273 271 271 273 276 278 278 278 278 277 276 275 274 273 272 270 268 266 266 266 264 262 261 260 258 256 251 245 240
306 305 303 302 300 298 297 297 297 296 294 292 292 293 293 292 291 292 292 292 292 291 289 287 285 284 284 283 281 279 278 277 274 272 271 271 271 272 273 274 275 276 277 276 275 275 274 273 272 270 268 266 265 265 263 261 260 259 257 255 252 247 240
307 306 304 303 301 299 297 296 297 295 293 292 293 293 291 291 291 292 293 294 293 291 290 288 286 284 283 281 278 278 277 276 274 272 272 272 272 272 272 272 273 273 274 275 275 274 273 273 272 271 267 266 265 264 262 260 259 258 256 253 251 248 243
308 308 306 304 303 300 297 296 296 294 292 292 293 292 291 291 292 292 293 293 293 291 290 288 284 282 281 279 278 278 278 278 276 275 274 274 273 272 272 272 272 272 273 273 274 273 272 272 272 271 268 265 264 264 262 260 258 256 255 251 249 247 243
309 309 307 305 304 300 297 296 295 292 291 292 292 291 291 291 292 293 294 293 292 291 290 287 284 283 281 280 280 280 281 280 279 277 275 274 273 273 272 272 272 273 273 272 272 272 271 271 270 270 269 265 263 262 262 260 258 256 253 249 245 243 242
311 310 308 306 304 300 297 296 294 291 291 292 292 291 291 292 294 295 294 293 292 290 288 288 288 287 285 285 285 284 284 283 281 280 278 277 276 276 275 275 274 274 273 273 272 271 270 269 268 267 267 265 263 261 261 260 258 256 254 248 242 239 239
311 311 308 305 303 299 296 295 293 290 290 291 291 291 291 293 295 295 294 293 292 290 289 290 291 290 290 290 290 289 288 285 282 281 281 282 282 281 279 279 278 277 276 274 272 270 269 267 266 265 264 263 261 260 260 259 258 256 254 250 242 236 234
312 311 309 306 301 297 295 294 291 288 288 289 290 290 292 295 296 294 293 294 292 291 291 292 292 294 294 294 292 290 288 285 282 282 284 286 286 285 283 282 280 278 277 275 273 271 269 267 266 264 263 262 260 258 257 256 256 256 254 251 244 236 232
312 312 310 306 301 296 294 292 288 287 287 288 288 289 291 295 295 294 294 294 292 292 292 293 295 296 294 293 293 291 289 287 284 284 286 287 287 287 285 282 279 277 275 275 275 275 274 272 270 267 264 262 260 258 255 254 254 254 253 250 246 239 233
313 312 311 307 300 295 292 290 287 285 286 287 287 288 290 293 293 293 294 293 292 293 294 296 297 295 293 294 295 293 291 288 285 287 291 289 287 286 283 279 278 278 278 279 278 276 275 274 272 269 266 263 259 256 254 253 251 251 250 248 246 242 236
313 313 312 308 300 294 291 287 285 284 285 286 286 287 289 291 291 291 292 292 292 293 294 297 296 294 295 296 295 294 293 290 289 292 292 289 286 284 281 280 280 280 280 279 277 275 274 273 271 269 266 262 258 254 251 250 249 248 247 246 245 243 238
313 313 312 307 300 293 289 286 283 284 284 285 285 285 287 290 290 288 288 290 291 291 292 293 293 293 295 295 293 294 293 292 293 294 291 288 286 283 281 281 281 280 279 278 278 276 274 271 269 267 264 260 256 251 248 246 246 245 244 243 242 241 239
313 313 311 307 299 292 288 285 282 283 284 284 284 283 285 289 289 285 286 288 289 290 291 292 292 292 293 292 292 292 290 289 291 293 291 290 287 283 281 281 281 281 281 281 281 280 275 269 266 265 263 258 253 248 245 243 242 241 241 240 239 239 238
313 313 312 306 299 292 288 284 283 283 282 282 282 281 283 287 287 283 284 287 288 289 290 291 291 291 291 290 291 289 287 287 287 289 290 289 287 283 281 280 280 281 281 281 281 280 276 270 265 263 260 255 250 246 242 240 238 238 238 237 236 236 236
312 313 312 306 299 293 288 284 283 283 282 281 280 280 282 285 284 281 282 285 286 287 287 288 289 290 289 289 289 289 288 288 288 289 290 289 287 285 282 281 280 280 280 280 279 277 275 271 266 260 256 252 248 243 239 237 235 234 234 234 233 233 233
312 313 311 306 299 293 288 284 283 283 282 280 279 278 279 282 282 281 283 284 284 284 284 285 287 289 289 289 289 289 290 289 289 290 289 288 287 285 283 283 282 281 280 280 279 277 274 270 265 259 253 248 245 241 237 234 233 232 231 231 231 230 229
311 312 310 306 300 293 288 284 283 282 281 280 277 276 278 280 281 281 282 283 282 283 284 285 286 286 287 287 287 288 289 289 288 288 288 286 285 284 284 284 284 284 283 282 279 277 273 269 264 258 252 247 242 238 234 232 230 229 228 228 228 228 227
310 311 310 306 300 293 288 284 282 282 281 280 276 274 277 281 283 283 282 282 282 282 284 285 285 285 284 285 286 287 287 286 286 286 285 282 281 283 284 284 284 285 285 283 281 278 274 269 264 257 251 244 238 233 229 226 224 223 223 223 223 223 223
309 310 309 305 299 293 287 283 282 281 281 280 276 275 277 281 283 285 284 283 282 283 286 287 286 285 284 284 285 285 284 283 282 281 280 276 275 277 280 282 285 287 287 286 285 281 275 268 256 246 238 229 225 221 217 216 215 213 213 212 212 213 213
306 308 308 305 299 292 286 282 281 281 281 279 276 274 276 280 283 285 284 282 283 285 287 287 286 285 284 284 283 281 279 277 274 268 263 260 258 264 272 276 278 281 280 281 277 266 246 196 171 185 193 194 196 195 194 196 197 196 196 196 195 197 198
304 305 306 304 299 292 286 282 280 279 279 278 275 273 275 279 282 283 281 281 283 285 287 287 285 283 281 279 277 274 268 260 248 240 242 247 250 257 263 265 266 264 258 251 241 215 180 154 149 163 173 176 178 179 181 182 182 182 182 181 181 183 184
301 302 303 302 299 293 286 282 279 277 277 276 274 272 273 276 279 279 279 280 284 285 284 284 283 280 277 273 265 255 244 234 228 230 241 252 258 264 267 266 263 258 249 241 235 226 217 210 204 200 193 187 185 185 184 183 181 180 180 179 178 178 178
299 300 301 301 298 292 286 282 279 277 276 275 274 273 271 271 274 277 277 278 281 282 281 280 278 275 269 259 244 232 225 226 232 238 247 260 270 274 271 264 255 248 240 232 226 221 217 215 213 209 203 198 194 188 185 183 181 177 175 173 171 170 171
296 297 298 299 297 292 285 280 277 276 274 274 274 274 271 268 270 273 274 274 276 277 276 276 273 266 256 241 228 225 226 230 235 241 252 264 272 271 265 257 245 234 224 214 208 205 203 202 200 196 190 184 180 174 169 165 162 160 160 162 162 162 163
293 293 294 296 295 291 286 280 276 274 273 272 272 273 272 269 265 264 267 271 273 272 271 271 266 255 242 231 225 226 229 231 237 245 252 256 257 256 253 244 231 215 200 190 185 183 181 179 177 173 169 164 160 156 153 151 151 153 156 157 156 156 156
Height
2928 2925 2923 2922 2920 2918 2916 2914 2912 2911 2909 2907 2906 2905 2904 2903 2902 2900 2899 2899 2898 2896 2895 2895 2894 2894 2893 2893 2894 2894 2893 2893 2893 2892 2891 2890 2889 2888 2887 2885 2883 2879 2876 2877 2879 2878 2877 2878 2878 2878 2881 2886 2889 2891 2892 2893 2893 2894 2895 2897 2900 2904 2908
2923 2921 2919 2917 2915 2913 2911 2909 2907 2906 2904 2902 2900 2898 2898 2897 2895 2894 2893 2893 2892 2891 2890 2889 2888 2887 2887 2887 2887 2887 2886 2886 2886 2885 2885 2884 2883 2882 2881 2880 2878 2875 2872 2871 2873 2873 2872 2873 2873 2872 2874 2877 2880 2883 2884 2885 2887 2888 2888 2890 2893 2896 2900
2918 2916 2914 2912 2910 2908 2906 2904 2902 2900 2899 2897 2895 2893 2891 2890 2889 2888 2887 2887 2886 2885 2884 2883 2882 2882 2881 2881 2880 2880 2880 2880 2879 2879 2878 2878 2877 2875 2875 2874 2873 2870 2868 2866 2866 2867 2866 2867 2868 2867 2868 2870 2872 2875 2876 2878 2881 2882 2882 2884 2887 2889 2892
2913 2911 2909 2907 2905 2903 2901 2899 2897 2895 2893 2891 2889 2887 2886 2885 2883 2882 2881 2880 2879 2878 2878 2877 2876 2876 2875 2875 2874 2873 2873 2873 2873 2872 2872 2871 2871 2869 2868 2868 2867 2865 2864 2862 2861 2861 2861 2862 2863 2862 2863 2864 2864 2866 2869 2871 2874 2876 2877 2879 2881 2882 2883
2908 2906 2904 2902 2900 2898 2896 2894 2892 2890 2888 2886 2884 2882 2880 2879 2877 2876 2875 2874 2873 2872 2871 2871 2870 2870 2869 2868 2867 2867 2867 2867 2866 2866 2865 2865 2864 2863 2862 2861 2860 2860 2859 2858 2856 2855 2856 2857 2857 2857 2858 2857 2856 2858 2863 2866 2868 2870 2871 2872 2874 2874 2876
2903 2901 2899 2897 2895 2893 2891 2889 2886 2884 2882 2880 2878 2877 2875 2873 2871 2870 2869 2868 2867 2866 2865 2865 2864 2864 2863 2862 2861 2861 2861 2861 2860 2860 2859 2859 2858 2857 2856 2855 2854 2854 2853 2852 2851 2850 2850 2851 2852 2852 2852 2851 2851 2852 2856 2859 2862 2864 2864 2864 2866 2868 2870
2898 2896 2894 2892 2890 2888 2886 2883 2881 2879 2876 2874 2873 2871 2869 2868 2866 2864 2863 2861 2860 2859 2859 2858 2858 2857 2857 2856 2856 2855 2855 2855 2854 2854 2853 2853 2852 2850 2849 2849 2848 2848 2848 2847 2847 2846 2845 2845 2846 2847 2846 2845 2847 2849 2849 2851 2855 2858 2858 2858 2859 2862 2864
2892 2890 2888 2886 2884 2882 2880 2878 2876 2873 2871 2869 2867 2865 2864 2862 2861 2859 2857 2856 2855 2854 2853 2852 2852 2851 2851 2850 2850 2850 2849 2849 2848 2848 2847 2847 2846 2844 2843 2842 2842 2843 2842 2842 2842 2841 2840 2839 2840 2842 2841 2840 2843 2845 2845 2846 2846 2850 2853 2853 2853 2856 2858
2886 2884 2882 2880 2878 2876 2874 2872 2870 2868 2865 2863 2861 2859 2858 2856 2855 2853 2851 2850 2849 2848 2848 2847 2846 2846 2845 2845 2844 2844 2843 2843 2843 2842 2841 2841 2840 2839 2837 2837 2837 2837 2837 2837 2837 2836 2835 2835 2835 2836 2836 2836 2838 2840 2841 2841 2840 2842 2845 2847 2849 2850 2852
2882 2879 2877 2875 2873 2871 2869 2867 2865 2863 2860 2858 2856 2854 2852 2850 2849 2848 2846 2845 2844 2843 2842 2842 2841 2841 2840 2840 2839 2838 2838 2838 2837 2837 2836 2836 2835 2833 2832 2832 2832 2832 2832 2831 2831 2831 2831 2830 2830 2832 2832 2832 2834 2835 2835 2835 2836 2837 2839 2841 2843 2845 2846
2877 2875 2872 2870 2868 2866 2864 2862 2860 2857 2855 2853 2851 2849 2847 2845 2843 2842 2841 2840 2839 2838 2837 2837 2836 2836 2835 2835 2834 2833 2833 2833 2832 2832 2832 2831 2830 2828 2827 2827 2827 2827 2827 2827 2827 2826 2826 2825 2825 2827 2828 2828 2829 2829 2830 2831 2832 2832 2833 2835 2838 2839 2841
2872 2869 2867 2865 2863 2861 2859 2857 2854 2852 2850 2848 2847 2845 2842 2840 2838 2836 2835 2835 2834 2833 2832 2832 2831 2830 2830 2830 2829 2828 2828 2828 2828 2828 2827 2826 2825 2824 2824 2823 2822 2822 2822 2822 2822 2822 2821 2821 2821 2822 2823 2824 2824 2824 2825 2826 2827 2828 2829 2830 2832 2834 2836
2866 2864 2861 2859 2857 2855 2854 2851 2849 2847 2845 2844 2842 2840 2838 2835 2833 2832 2831 2830 2829 2828 2827 2827 2826 2825 2825 2825 2824 2823 2823 2823 2824 2823 2822 2821 2821 2820 2820 2819 2818 2817 2817 2817 2817 2817 2817 2816 2817 2817 2819 2820 2820 2820 2821 2822 2823 2823 2824 2826 2827 2829 2831
2861 2858 2856 2853 2851 2849 2848 2846 2844 2842 2840 2839 2837 2836 2833 2831 2830 2828 2827 2826 2825 2823 2822 2822 2821 2820 2820 2820 2819 2818 2818 2819 2819 2818 2817 2816 2816 2815 2815 2815 2814 2813 2812 2812 2812 2813 2813 2812 2812 2813 2814 2815 2816 2816 2817 2818 2818 2819 2820 2822 2823 2825 2827
2856 2853 2850 2848 2845 2844 2842 2841 2839 2837 2835 2834 2833 2831 2829 2827 2826 2825 2823 2822 2821 2819 2818 2818 2817 2816 2816 2815 2814 2814 2814 2814 2814 2813 2812 2811 2811 2810 2810 2810 2809 2809 2808 2807 2807 2807 2808 2808 2808 2808 2809 2811 2811 2812 2812 2813 2814 2815 2816 2818 2819 2821 2823
2851 2848 2846 2843 2841 2839 2837 2836 2834 2832 2831 2830 2828 2826 2825 2824 2822 2821 2820 2818 2817 2816 2815 2813 2813 2812 2811 2811 2810 2810 2810 2809 2808 2808 2807 2806 2806 2806 2805 2805 2804 2804 2803 2802 2802 2802 2802 2803 2804 2804 2805 2806 2807 2808 2808 2809 2810 2811 2812 2814 2816 2817 2818
2847 2844 2841 2838 2836 2834 2833 2832 2830 2828 2827 2825 2824 2822 2820 2820 2819 2817 2816 2815 2814 2812 2811 2810 2809 2808 2807 2807 2806 2806 2806 2805 2803 2802 2801 2802 2801 2801 2800 2800 2800 2799 2798 2797 2797 2797 2797 2798 2799 2799 2800 2801 2802 2804 2804 2805 2806 2807 2808 2810 2812 2813 2815
2842 2839 2836 2834 2832 2830 2828 2827 2826 2824 2823 2822 2820 2817 2816 2815 2815 2814 2812 2811 2810 2809 2808 2807 2806 2805 2804 2804 2803 2802 2802 2801 2800 2798 2797 2797 2797 2797 2796 2795 2795 2794 2793 2793 2792 2792 2792 2792 2793 2794 2795 2796 2797 2799 2800 2801 2802 2803 2804 2806 2808 2809 2811
2836 2834 2832 2829 2827 2825 2824 2823 2822 2820 2819 2818 2816 2814 2812 2812 2811 2810 2809 2808 2807 2806 2805 2804 2803 2802 2801 2800 2800 2799 2799 2798 2796 2795 2794 2793 2793 2793 2792 2791 2791 2790 2789 2789 2788 2788 2788 2788 2788 2789 2790 2791 2792 2794 2795 2796 2797 2799 2801 2802 2804 2805 2807
2831 2829 2826 2824 2822 2821 2819 2818 2817 2816 2815 2814 2813 2811 2809 2808 2807 2806 2805 2805 2804 2802 2802 2801 2800 2799 2798 2797 2797 2796 2795 2795 2793 2792 2791 2790 2789 2789 2788 2788 2787 2786 2786 2785 2785 2784 2784 2784 2784 2785 2786 2787 2787 2789 2790 2792 2793 2795 2796 2798 2800 2801 2804
2827 2824 2822 2819 2817 2816 2815 2814 2813 2812 2811 2810 2809 2808 2806 2806 2804 2802 2802 2802 2800 2799 2798 2798 2798 2796 2795 2795 2794 2793 2792 2791 2790 2789 2789 2787 2787 2786 2785 2784 2783 2783 2782 2782 2781 2781 2780 2780 2780 2780 2781 2782 2783 2784 2786 2787 2789 2790 2792 2794 2795 2797 2800
2822 2819 2817 2815 2813 2811 2811 2810 2809 2808 2808 2807 2805 2804 2803 2803 2801 2800 2799 2798 2797 2796 2796 2795 2795 2793 2792 2792 2791 2790 2789 2788 2787 2787 2786 2785 2784 2784 2782 2781 2781 2780 2779 2779 2778 2777 2777 2776 2776 2776 2777 2777 2778 2780 2781 2783 2785 2786 2788 2790 2791 2793 2795
2818 2815 2812 2810 2809 2807 2806 2806 2805 2805 2804 2803 2802 2801 2800 2800 2799 2797 2796 2795 2795 2794 2793 2793 2792 2791 2790 2789 2788 2787 2786 2784 2783 2783 2783 2782 2782 2781 2779 2778 2778 2777 2776 2775 2774 2774 2774 2773 2773 2773 2773 2774 2774 2776 2777 2779 2780 2782 2784 2786 2787 2789 2791
2814 2811 2808 2806 2805 2804 2802 2802 2802 2801 2800 2799 2799 2798 2797 2797 2796 2794 2793 2793 2792 2791 2790 2790 2789 2788 2787 2786 2786 2785 2784 2782 2781 2780 2780 2779 2779 2778 2777 2775 2774 2774 2773 2772 2771 2771 2771 2770 2770 2770 2770 2771 2771 2772 2774 2775 2777 2778 2780 2782 2784 2785 2788
2810 2807 2804 2802 2801 2800 2799 2798 2798 2798 2797 2796 2795 2795 2794 2794 2794 2792 2790 2790 2789 2788 2787 2786 2786 2785 2785 2783 2783 2782 2781 2780 2778 2778 2777 2776 2776 2775 2774 2773 2772 2771 2770 2769 2768 2768 2767 2767 2767 2767 2767 2768 2768 2769 2771 2772 2773 2775 2776 2778 2780 2782 2784
2805 2803 2800 2799 2797 2796 2795 2795 2794 2794 2794 2793 2792 2791 2791 2791 2791 2789 2788 2787 2786 2785 2785 2784 2783 2782 2782 2781 2780 2779 2778 2777 2776 2775 2774 2774 2773 2772 2771 2770 2769 2768 2767 2767 2766 2765 2765 2765 2765 2765 2765 2766 2766 2767 2768 2769 2771 2772 2773 2775 2777 2779 2781
2801 2799 2797 2795 2793 2792 2792 2791 2791 2790 2790 2789 2789 2788 2788 2788 2787 2786 2785 2785 2784 2783 2782 2781 2780 2779 2779 2778 2777 2776 2775 2775 2774 2773 2772 2771 2770 2770 2769 2768 2767 2766 2765 2765 2764 2763 2763 2763 2763 2763 2763 2764 2764 2765 2766 2767 2769 2770 2771 2773 2774 2776 2778
2798 2795 2793 2791 2790 2789 2788 2788 2787 2787 2786 2786 2786 2785 2784 2784 2784 2783 2783 2782 2781 2780 2780 2779 2778 2777 2776 2775 2774 2774 2773 2772 2771 2771 2770 2769 2768 2768 2767 2766 2766 2765 2764 2763 2763 2762 2762 2762 2762 2762 2762 2762 2763 2764 2765 2766 2767 2768 2769 2771 2772 2774 2775
2794 2792 2789 2788 2786 2785 2785 2784 2784 2783 2783 2783 2782 2782 2781 2781 2781 2781 2780 2779 2779 2778 2777 2776 2776 2775 2774 2773 2772 2772 2771 2770 2769 2769 2768 2768 2767 2766 2766 2765 2765 2764 2763 2763 2762 2762 2761 2761 2761 2761 2761 2761 2762 2763 2763 2764 2765 2767 2768 2769 2771 2772 2774
2790 2788 2786 2784 2783 2782 2781 2781 2781 2780 2780 2779 2779 2778 2778 2778 2778 2778 2777 2777 2776 2775 2775 2774 2773 2773 2772 2771 2770 2770 2769 2768 2768 2767 2767 2766 2766 2766 2765 2765 2764 2764 2763 2762 2762 2762 2761 2761 2761 2761 2761 2761 2762 2762 2763 2764 2765 2766 2767 2768 2770 2771 2772
2786 2784 2783 2781 2780 2779 2778 2777 2777 2777 2776 2776 2776 2775 2775 2775 2775 2775 2774 2774 2773 2773 2772 2772 2771 2771 2770 2769 2769 2768 2768 2767 2767 2766 2766 2766 2766 2765 2765 2765 2764 2764 2763 2763 2762 2762 2762 2761 2761 2761 2762 2762 2762 2763 2763 2764 2765 2766 2767 2768 2769 2770 2772
2783 2781 2779 2778 2776 2775 2774 2774 2774 2773 2773 2773 2772 2772 2772 2772 2772 2772 2772 2771 2771 2770 2770 2769 2769 2769 2768 2768 2767 2767 2766 2766 2766 2766 2766 2765 2765 2765 2765 2764 2764 2764 2763 2763 2763 2762 2762 2762 2762 2762 2763 2763 2763 2764 2764 2765 2766 2766 2767 2768 2769 2771 2772
2779 2778 2776 2774 2773 2772 2771 2770 2770 2770 2770 2769 2768 2769 2769 2769 2769 2769 2769 2768 2768 2768 2768 2767 2767 2767 2766 2766 2766 2766 2765 2765 2765 2765 2765 2765 2765 2765 2764 2764 2764 2764 2763 2763 2763 2763 2763 2763 2763 2763 2763 2764 2764 2765 2765 2766 2767 2767 2768 2769 2770 2771 2773
2775 2774 2773 2771 2770 2769 2768 2767 2766 2767 2767 2766 2765 2765 2766 2766 2766 2766 2766 2766 2766 2766 2766 2765 2765 2765 2765 2765 2765 2765 2765 2765 2765 2765 2764 2764 2764 2764 2764 2764 2763 2763 2763 2763 2763 2763 2763 2763 2763 2764 2764 2765 2765 2766 2766 2767 2768 2769 2769 2770 2771 2772 2773
2772 2770 2769 2768 2767 2765 2764 2764 2763 2763 2763 2763 2762 2762 2762 2763 2764 2763 2763 2763 2763 2763 2763 2763 2763 2763 2763 2764 2764 2764 2764 2764 2764 2764 2764 2763 2763 2763 2763 2763 2763 2763 2763 2763 2763 2763 2763 2763 2764 2764 2765 2765 2766 2767 2767 2768 2769 2769 2770 2771 2772 2773 2774
2768 2767 2765 2764 2763 2762 2761 2760 2760 2760 2760 2759 2759 2759 2759 2760 2761 2761 2760 2760 2761 2761 2761 2761 2762 2762 2762 2762 2763 2763 2763 2763 2763 2763 2763 2763 2763 2763 2763 2763 2763 2763 2763 2763 2763 2763 2764 2764 2764 2765 2766 2766 2767 2767 2768 2769 2770 2770 2771 2772 2773 2774 2775